TimeEST,TemperatureF,Dew PointF,Humidity,Sea Level PressureIn,VisibilityMPH,Wind Direction,Wind SpeedMPH,Gust SpeedMPH,PrecipitationIn,Events,Conditions,WindDirDegrees,DateUTC
12:14 AM,33.3,32.2,96,29.58,2.5,NW,4.6,-,N/A,,Overcast,320,2013-02-28 05:14:00
12:35 AM,33.8,32.5,95,29.59,3.0,NNW,4.6,-,N/A,,Overcast,330,2013-02-28 05:35:00
12:55 AM,33.8,32.2,94,29.59,2.5,NNW,5.8,-,N/A,Snow,Light Snow,330,2013-02-28 05:55:00
1:14 AM,33.8,32.0,93,29.59,3.0,NW,5.8,-,N/A,,Overcast,320,2013-02-28 06:14:00
1:35 AM,34.0,32.2,93,29.59,5.0,NW,6.9,-,N/A,,Overcast,320,2013-02-28 06:35:00
2:14 AM,33.8,32.0,93,29.60,5.0,NNW,6.9,-,N/A,,Overcast,330,2013-02-28 07:14:00
2:35 AM,34.0,32.0,92,29.61,5.0,NNW,6.9,-,N/A,,Overcast,330,2013-02-28 07:35:00
2:55 AM,33.4,32.0,94,29.61,7.0,NNW,5.8,-,N/A,,Overcast,330,2013-02-28 07:55:00
3:14 AM,33.8,32.0,93,29.62,5.0,NNW,6.9,-,N/A,,Overcast,330,2013-02-28 08:14:00
3:35 AM,33.3,31.5,93,29.62,7.0,NNW,8.1,-,N/A,,Overcast,330,2013-02-28 08:35:00
3:54 AM,33.3,31.5,93,29.62,7.0,NNW,8.1,-,N/A,,Overcast,330,2013-02-28 08:54:00
4:14 AM,33.3,31.3,92,29.63,10.0,NNW,8.1,-,N/A,,Overcast,330,2013-02-28 09:14:00
4:35 AM,33.1,31.1,92,29.63,10.0,NNW,8.1,-,N/A,,Overcast,330,2013-02-28 09:35:00
4:54 AM,33.4,31.1,91,29.64,10.0,NNW,6.9,-,N/A,,Overcast,330,2013-02-28 09:54:00
5:15 AM,33.1,30.9,92,29.65,10.0,NNW,5.8,-,N/A,,Overcast,340,2013-02-28 10:15:00
5:34 AM,33.1,30.9,92,29.65,10.0,NNW,8.1,-,N/A,,Overcast,330,2013-02-28 10:34:00
5:55 AM,32.9,30.7,92,29.66,10.0,NNW,8.1,-,N/A,,Overcast,340,2013-02-28 10:55:00
6:15 AM,32.9,30.6,91,29.67,7.0,NNW,8.1,-,N/A,,Overcast,330,2013-02-28 11:15:00
6:34 AM,32.9,30.6,91,29.68,7.0,NNW,6.9,-,N/A,Snow,Light Snow,330,2013-02-28 11:34:00
6:55 AM,32.9,30.4,90,29.68,4.0,NNW,6.9,-,N/A,Snow,Light Snow,330,2013-02-28 11:55:00
7:15 AM,32.9,30.6,91,29.70,4.0,NNW,10.4,-,N/A,Snow,Light Snow,330,2013-02-28 12:15:00
7:34 AM,32.4,30.2,92,29.70,10.0,NNW,9.2,-,N/A,,Overcast,330,2013-02-28 12:34:00
7:55 AM,32.5,30.0,90,29.70,10.0,NNW,6.9,-,N/A,,Overcast,330,2013-02-28 12:55:00
8:15 AM,32.5,29.8,90,29.72,10.0,NNW,6.9,-,N/A,,Overcast,340,2013-02-28 13:15:00
8:34 AM,32.9,29.8,88,29.73,10.0,NNW,8.1,-,N/A,,Overcast,340,2013-02-28 13:34:00
8:54 AM,32.9,30.0,89,29.74,10.0,North,8.1,-,N/A,,Overcast,350,2013-02-28 13:54:00
9:14 AM,32.9,30.2,90,29.75,10.0,NNW,8.1,-,N/A,,Overcast,340,2013-02-28 14:14:00
9:35 AM,33.1,30.2,89,29.75,10.0,NNW,6.9,-,N/A,,Overcast,340,2013-02-28 14:35:00
9:54 AM,33.3,30.0,88,29.76,10.0,NNW,5.8,-,N/A,,Overcast,340,2013-02-28 14:54:00
10:15 AM,33.4,30.2,88,29.76,10.0,NNW,9.2,-,N/A,,Overcast,340,2013-02-28 15:15:00
10:35 AM,33.8,30.2,87,29.77,10.0,NNW,6.9,-,N/A,,Overcast,340,2013-02-28 15:35:00
10:54 AM,34.2,30.4,86,29.78,10.0,NNW,8.1,-,N/A,,Overcast,340,2013-02-28 15:54:00
11:15 AM,34.7,30.2,84,29.78,10.0,NNW,9.2,16.1,N/A,,Overcast,340,2013-02-28 16:15:00
11:35 AM,34.7,30.2,84,29.79,7.0,NNW,10.4,18.4,N/A,,Overcast,340,2013-02-28 16:35:00
11:54 AM,34.9,30.6,84,29.80,10.0,NNW,11.5,-,N/A,,Overcast,330,2013-02-28 16:54:00
12:15 PM,34.7,30.6,85,29.81,10.0,NNW,8.1,-,N/A,,Overcast,330,2013-02-28 17:15:00
12:35 PM,34.9,30.7,85,29.81,10.0,NNW,10.4,-,N/A,,Overcast,340,2013-02-28 17:35:00
12:54 PM,34.9,30.2,83,29.81,10.0,NNW,10.4,17.3,N/A,,Overcast,340,2013-02-28 17:54:00
1:15 PM,35.1,30.0,82,29.81,10.0,NNW,11.5,16.1,N/A,,Overcast,330,2013-02-28 18:15:00
1:34 PM,35.6,30.2,81,29.81,10.0,NNW,6.9,-,N/A,,Overcast,330,2013-02-28 18:34:00
1:54 PM,36.0,29.8,78,29.81,10.0,North,5.8,-,N/A,,Overcast,350,2013-02-28 18:54:00
2:15 PM,36.1,29.5,77,29.81,10.0,NNW,6.9,-,N/A,,Overcast,340,2013-02-28 19:15:00
2:34 PM,36.5,29.3,75,29.82,10.0,NNW,5.8,-,N/A,,Overcast,340,2013-02-28 19:34:00
2:55 PM,36.5,28.9,74,29.82,10.0,NNW,8.1,-,N/A,,Overcast,340,2013-02-28 19:55:00
3:15 PM,36.1,28.6,74,29.83,10.0,NNW,9.2,-,N/A,,Overcast,330,2013-02-28 20:15:00
3:34 PM,36.3,28.6,74,29.83,10.0,North,5.8,-,N/A,,Overcast,350,2013-02-28 20:34:00
3:55 PM,36.1,28.4,73,29.84,10.0,North,5.8,-,N/A,,Overcast,350,2013-02-28 20:55:00
4:15 PM,36.1,28.4,73,29.85,10.0,NNW,6.9,-,N/A,,Overcast,340,2013-02-28 21:15:00
4:34 PM,35.8,29.1,77,29.86,10.0,NW,5.8,-,N/A,,Overcast,320,2013-02-28 21:34:00
4:55 PM,35.6,29.1,77,29.87,10.0,NW,9.2,-,N/A,,Overcast,310,2013-02-28 21:55:00
5:15 PM,34.7,29.1,80,29.87,10.0,NW,10.4,-,N/A,,Overcast,310,2013-02-28 22:15:00
5:34 PM,34.7,29.1,80,29.88,10.0,NW,9.2,-,N/A,,Overcast,310,2013-02-28 22:34:00
5:55 PM,34.2,28.8,81,29.89,10.0,NW,9.2,16.1,N/A,,Overcast,310,2013-02-28 22:55:00
6:15 PM,34.0,28.8,81,29.90,10.0,NW,5.8,-,N/A,,Overcast,310,2013-02-28 23:15:00
7:14 PM,33.3,28.8,84,29.92,10.0,NW,5.8,-,N/A,,Overcast,310,2013-03-01 00:14:00
7:35 PM,33.1,28.4,83,29.93,10.0,NW,6.9,-,N/A,,Overcast,310,2013-03-01 00:35:00
8:14 PM,32.7,28.6,85,29.94,7.0,NW,5.8,-,N/A,,Overcast,310,2013-03-01 01:14:00
8:35 PM,32.4,28.4,85,29.95,10.0,NW,6.9,-,N/A,,Overcast,310,2013-03-01 01:35:00
8:55 PM,32.9,28.9,85,29.95,5.0,NNW,6.9,-,N/A,,Overcast,330,2013-03-01 01:55:00
9:14 PM,32.5,28.6,85,29.95,7.0,NNW,5.8,-,N/A,,Overcast,330,2013-03-01 02:14:00
9:35 PM,32.7,28.4,84,29.96,7.0,NNW,8.1,-,N/A,,Overcast,340,2013-03-01 02:35:00
9:55 PM,32.2,28.4,86,29.96,7.0,NNW,5.8,-,N/A,,Overcast,330,2013-03-01 02:55:00
10:14 PM,32.0,27.9,85,29.96,10.0,NNW,5.8,-,N/A,,Overcast,340,2013-03-01 03:14:00
10:35 PM,32.0,27.5,83,29.96,10.0,NNW,4.6,-,N/A,,Overcast,340,2013-03-01 03:35:00
10:55 PM,32.0,27.3,83,29.96,10.0,North,4.6,-,N/A,,Overcast,350,2013-03-01 03:55:00
11:14 PM,32.0,27.1,82,29.96,10.0,North,3.5,-,N/A,,Overcast,360,2013-03-01 04:14:00
11:54 PM,31.8,26.6,81,29.96,10.0,North,3.5,-,N/A,,Overcast,360,2013-03-01 04:54:00